Location: Bennemühlen
(52.5740°N, 9.7135°E)
Time: 20:59:47
(UTC+00:00)

Tiros 1 despin weight - Pass Details

Date: 18 February 2026
Orbit: 556 x 593 km, 48.2° (Epoch: 8 March)

Event Time Altitude Azimuth Distance (km) Brightness Sun altitude
Rises 13:48:32 0° 202° (SSW) 2,735 ? 19.8°
Reaches altitude 10° 13:51:40 10° 177° (S) 1,838 ? 19.5°
Maximum altitude 13:53:55 14° 144° (SE) 1,580 ? 19.3°
Drops below altitude 10° 13:56:10 10° 112° (ESE) 1,838 ? 19.1°
Sets 13:59:18 0° 87° (E) 2,735 ? 18.9°
